TimeMST,TemperatureF,Dew PointF,Humidity,Sea Level PressureIn,VisibilityMPH,Wind Direction,Wind SpeedMPH,Gust SpeedMPH,PrecipitationIn,Events,Conditions,WindDirDegrees,DateUTC
12:15 AM,8.6,-2.2,62,29.59,10.0,North,15.0,-,N/A,,Overcast,350,2011-11-19 07:15:00
12:35 AM,8.6,-2.2,62,29.59,10.0,North,12.7,-,N/A,,Overcast,360,2011-11-19 07:35:00
1:15 AM,6.8,-2.2,67,29.57,10.0,North,16.1,-,N/A,,Overcast,360,2011-11-19 08:15:00
1:35 AM,6.8,-2.2,67,29.58,9.0,North,12.7,-,N/A,,Overcast,350,2011-11-19 08:35:00
2:15 AM,6.8,-4.0,61,29.60,10.0,North,10.4,-,N/A,,Overcast,350,2011-11-19 09:15:00
2:35 AM,6.8,-4.0,61,29.61,8.0,North,12.7,-,N/A,,Overcast,360,2011-11-19 09:35:00
2:55 AM,6.8,-4.0,61,29.62,5.0,North,19.6,23.0,N/A,,Overcast,350,2011-11-19 09:55:00
3:15 AM,5.0,-5.8,61,29.62,5.0,NNW,16.1,-,N/A,,Overcast,340,2011-11-19 10:15:00
3:35 AM,5.0,-5.8,61,29.62,9.0,North,16.1,-,N/A,,Overcast,350,2011-11-19 10:35:00
4:15 AM,5.0,-5.8,61,29.64,6.0,North,13.8,-,N/A,,Overcast,360,2011-11-19 11:15:00
4:35 AM,3.2,-5.8,66,29.66,1.0,NNW,16.1,-,N/A,,Overcast,330,2011-11-19 11:35:00
4:55 AM,3.2,-7.6,61,29.66,3.0,NNW,13.8,-,N/A,,Overcast,340,2011-11-19 11:55:00
5:55 AM,1.4,-9.4,61,29.68,10.0,NNW,11.5,-,N/A,,Clear,330,2011-11-19 12:55:00
6:15 AM,1.4,-9.4,61,29.71,10.0,NNW,12.7,-,N/A,,Mostly Cloudy,340,2011-11-19 13:15:00
6:35 AM,1.4,-9.4,61,29.72,10.0,North,11.5,-,N/A,,Overcast,350,2011-11-19 13:35:00
6:55 AM,1.4,-9.4,61,29.72,10.0,North,10.4,-,N/A,,Overcast,350,2011-11-19 13:55:00
7:15 AM,1.4,-11.2,56,29.74,10.0,North,8.1,-,N/A,,Overcast,10,2011-11-19 14:15:00
7:35 AM,-0.4,-9999,N/A,29.75,10.0,North,9.2,-,N/A,,Scattered Clouds,10,2011-11-19 14:35:00
8:15 AM,1.4,-11.2,56,29.78,10.0,NNW,11.5,-,N/A,,Clear,340,2011-11-19 15:15:00
8:35 AM,1.4,-11.2,56,29.79,10.0,North,9.2,-,N/A,,Partly Cloudy,350,2011-11-19 15:35:00
8:55 AM,1.4,-11.2,56,29.79,10.0,North,6.9,-,N/A,,Clear,360,2011-11-19 15:55:00
9:15 AM,1.4,-11.2,56,29.81,10.0,NNE,5.8,-,N/A,,Clear,20,2011-11-19 16:15:00
9:55 AM,3.2,-9.4,56,29.83,10.0,SE,8.1,-,N/A,,Mostly Cloudy,140,2011-11-19 16:55:00
10:15 AM,3.2,-9.4,56,29.83,10.0,SE,8.1,-,N/A,,Mostly Cloudy,130,2011-11-19 17:15:00
10:35 AM,1.4,-9.4,61,29.84,10.0,SE,8.1,-,N/A,,Partly Cloudy,140,2011-11-19 17:35:00
10:55 AM,3.2,-7.6,61,29.84,10.0,SSE,9.2,-,N/A,,Partly Cloudy,160,2011-11-19 17:55:00
11:15 AM,3.2,-7.6,61,29.84,10.0,SE,6.9,-,N/A,,Clear,130,2011-11-19 18:15:00
11:35 AM,6.8,-5.8,56,29.84,10.0,SE,5.8,-,N/A,,Clear,140,2011-11-19 18:35:00
11:55 AM,6.8,-5.8,56,29.83,10.0,ESE,5.8,-,N/A,,Clear,110,2011-11-19 18:55:00
12:55 PM,8.6,-4.0,57,29.83,10.0,South,8.1,-,N/A,,Clear,170,2011-11-19 19:55:00
1:15 PM,8.6,-5.8,52,29.83,10.0,South,8.1,-,N/A,,Clear,180,2011-11-19 20:15:00
1:35 PM,8.6,-5.8,52,29.83,10.0,SE,5.8,-,N/A,,Scattered Clouds,140,2011-11-19 20:35:00
2:15 PM,8.6,-5.8,52,29.84,10.0,SSE,5.8,-,N/A,,Clear,160,2011-11-19 21:15:00
2:35 PM,8.6,-5.8,52,29.84,10.0,SSE,3.5,-,N/A,,Clear,150,2011-11-19 21:35:00
2:55 PM,8.6,-5.8,52,29.84,10.0,Calm,Calm,-,N/A,,Clear,0,2011-11-19 21:55:00
3:35 PM,8.6,-4.0,57,29.85,10.0,Calm,Calm,-,N/A,,Clear,0,2011-11-19 22:35:00
3:55 PM,8.6,-4.0,57,29.84,10.0,Calm,Calm,-,N/A,,Clear,0,2011-11-19 22:55:00
4:35 PM,6.8,-5.8,56,29.85,10.0,Calm,Calm,-,N/A,,Clear,0,2011-11-19 23:35:00
5:15 PM,1.4,-9.4,61,29.86,10.0,Calm,Calm,-,N/A,,Clear,0,2011-11-20 00:15:00
5:35 PM,3.2,-7.6,61,29.86,10.0,Calm,Calm,-,N/A,,Clear,0,2011-11-20 00:35:00
5:55 PM,1.4,-9.4,61,29.86,10.0,ESE,10.4,-,N/A,,Clear,110,2011-11-20 00:55:00
6:15 PM,1.4,-11.2,56,29.86,10.0,Calm,Calm,-,N/A,,Clear,0,2011-11-20 01:15:00
6:35 PM,1.4,-11.2,56,29.86,10.0,Calm,Calm,-,N/A,,Clear,0,2011-11-20 01:35:00
6:55 PM,1.4,-9.4,61,29.86,10.0,Calm,Calm,-,N/A,,Clear,0,2011-11-20 01:55:00
7:15 PM,1.4,-9.4,61,29.86,10.0,Calm,Calm,-,N/A,,Clear,0,2011-11-20 02:15:00
7:35 PM,1.4,-7.6,66,29.85,10.0,SE,5.8,-,N/A,,Clear,130,2011-11-20 02:35:00
7:55 PM,1.4,-7.6,66,29.86,10.0,Calm,Calm,-,N/A,,Clear,0,2011-11-20 02:55:00
8:15 PM,-2.2,-13.0,60,29.85,10.0,Calm,Calm,-,N/A,,Clear,0,2011-11-20 03:15:00
8:35 PM,-2.2,-14.8,55,29.85,10.0,Calm,Calm,-,N/A,,Clear,0,2011-11-20 03:35:00
9:15 PM,1.4,-7.6,66,29.84,10.0,South,5.8,-,N/A,,Clear,180,2011-11-20 04:15:00
9:35 PM,-0.4,-11.2,60,29.84,10.0,Calm,Calm,-,N/A,,Clear,0,2011-11-20 04:35:00
9:55 PM,-0.4,-9.4,66,29.85,10.0,Calm,Calm,-,N/A,,Clear,0,2011-11-20 04:55:00
10:15 PM,-0.4,-11.2,60,29.85,9.0,Calm,Calm,-,N/A,,Clear,0,2011-11-20 05:15:00
10:35 PM,-0.4,-11.2,60,29.85,10.0,WNW,4.6,-,N/A,,Clear,290,2011-11-20 05:35:00
11:15 PM,-0.4,-11.2,60,29.86,10.0,SW,5.8,-,N/A,,Clear,230,2011-11-20 06:15:00
11:35 PM,-0.4,-9.4,66,29.84,10.0,SSW,4.6,-,N/A,,Clear,200,2011-11-20 06:35:00
11:55 PM,-0.4,-9.4,66,29.85,10.0,North,3.5,-,N/A,,Clear,350,2011-11-20 06:55:00